Starlink 34312

operational
NORAD ID: 64711 Int'l Des: 2025-142 Owner: SPXS Country: US Constellation: starlink
LEOCIRCULAR

Starlink 34312について

説明を読み込み中...

リアルタイム位置

3D地球を読み込み中...

次回通過

高度履歴

Altitude vs Time

uPlot chart will show altitude changes over time

軌道要素

1 64711U 25142R 25340.77578154 .01054150 00000-0 78316-1 0 9993
2 64711 70.0003 188.6982 0009936 281.6864 78.3180 14.99924335 25738
Epoch: Dec 6, 2025 • Age: 23 hours

現在のステータス

高度 579.0 km
速度 7.57 km/s
衛星直下点 66.41°N, 28.47°W
打ち上げ日 Jun 28, 2025
運用期間 0.4 years
タイプ internet

技術仕様

分類 Payload
質量 575.00 kg
乾燥質量 530.00 kg
総質量 575.00 kg
長さ 0.30 m
直径 4.10 m
スパン 29.00 m
形状 Box + pan
製造者 SPXS
バスタイプ Starlink V2MO
フェーズステータス In Orbit
所有者/国 SPXS/US

大規模コンステレーション

Loading constellations...